{"data":{"norad_id":54685,"intl_designator":"2022-167D","name":"DONGPO 09","alt_names":[],"object_type":"PAYLOAD","status":"ACTIVE","operator":null,"country":"PRC","launch_date":"2022-12-09","launch_site_code":"SEAL","launch_vehicle":null,"mission":null,"orbit_class":"UNKNOWN","rcs_meters":null,"size_class":null,"mass_kg":null,"dimensions":null,"purposes":[],"wikipedia_slug":null,"has_3d_model":false,"image_url":null,"decayed_at":null,"tle_current":{"epoch":"2026-09-21T22:32:54.889152Z","epoch_age_seconds":37923,"freshness":"FRESH","line1":"1 54685U 22167D   26264.93952418  .00008011  00000+0  21537-3 0  9997","line2":"2 54685  97.6965  80.4651 0003217 121.1732 238.9828 15.38183077210316","mean_motion":15.38183077,"eccentricity":0.0003217,"inclination_deg":97.6965,"raan_deg":80.4651,"arg_perigee_deg":121.1732,"mean_anomaly_deg":238.9828,"bstar":0.00021537,"rev_number":21031,"period_min":93.616944662303,"perigee_km":449.2851011361,"apogee_km":453.67927812271,"semimajor_km":6829.6191896294,"source":"CELESTRAK","updated_at":"2026-09-22T09:00:25.185338Z"}}}